Regional Weather Roundup
Issued by NWS

Home | Current Version | Previous Version | Graphics & Text | Print | Product List | Glossary On
Versions: 1 2 3 4 5 6 7 8 9 10 11 12 13 14 15 16 17 18 19 20 21 22 23 24 25 26 27 28 29 30 31 32 33 34 35 36 37 38 39 40 41 42 43 44 45 46 47 48 49 50
000
ASUS45 KCYS 012210
RWRWY

WYOMING REGIONAL WEATHER ROUNDUP
NATIONAL WEATHER SERVICE CHEYENNE WY
400 PM MDT WED JUL 01 2015

NOTE:  "FAIR" INDICATES FEW OR NO CLOUDS BELOW 12,000 FEET
WITH NO SIGNIFICANT WEATHER AND/OR OBSTRUCTIONS TO VISIBILITY.

WYZ001-012300-
YELLOWSTONE NATIONAL PARK

CITY           SKY/WX    TMP DP  RH WIND       PRES   REMARKS
LK YELLOWSTONE   N/A     79  28  15 NW8G25    30.31F
W YELLOWSTONE  NOT AVBL

$$
WYZ002>013-054>058-071-098>099-012300-
NORTHERN WYOMING

CITY           SKY/WX    TMP DP  RH WIND       PRES   REMARKS
JACKSON        FAIR      84  39  20 NW9G20    30.19F
CODY           FAIR      84  52  32 N13       30.07F
GREYBULL       FAIR      95  46  18 VRB6      29.94F HX  91
WORLAND        FAIR      93  46  19 N6        29.97F
SHERIDAN       FAIR      87  52  29 MISG      30.02F
BUFFALO        FAIR      85  52  32 MISG      30.09F
GILLETTE       PTSUNNY   83  54  36 NE6       30.05F
HULETT         FAIR      81  55  41 N8        30.07F
NEWCASTLE      FAIR      82  46  28 MISG      30.04F

$$
WYZ014>020-022>026-101>103-012300-
CENTRAL WYOMING

CITY           SKY/WX    TMP DP  RH WIND       PRES   REMARKS
BIG PINEY      FAIR      87  40  19 N15       30.22F
PINEDALE       FAIR      84  39  20 W14G23    30.23F
DUBOIS         FAIR      82  32  16 N20G26    30.21S
LANDER         FAIR      88  51  28 N7        30.05F
RIVERTON       FAIR      88  46  23 NE9       30.06F
CASPER         FAIR      91  44  19 N7        30.06F
DOUGLAS        FAIR      84  51  31 NE8       30.06F

$$
WYZ021-027>030-104>119-012300-
SOUTHERN WYOMING

CITY           SKY/WX    TMP DP  RH WIND       PRES   REMARKS
EVANSTON       FAIR      87  36  16 W13G22    30.26F
KEMMERER       FAIR      86  37  17 NW17      30.26F
FORT BRIDGER   PTCLDY    88  37  16 NW16G22   30.26F
ROCK SPRINGS   FAIR      86  45  23 W13G20    30.18F
DIXON          FAIR      86  46  24 SW6       30.20F
RAWLINS        PTSUNNY   87  46  24 S12       30.18F
SARATOGA       TSTM      72  45  37 S15G21    30.23F
LARAMIE        PTSUNNY   75  47  36 SW14      30.26S
CHEYENNE       LGT RAIN  75  57  53 SE5       30.18F
TORRINGTON     FAIR      92  49  22 VRB5      29.99F
PINE BLUFFS    MOCLDY    84  45  24 NE3       30.10F

$$



USA.gov is the U.S. government's official web portal to all federal, state and local government web resources and services.